Time,TemperatureF,DewpointF,PressureIn,WindDirection,WindDirectionDegrees,WindSpeedMPH,WindSpeedGustMPH,Humidity,HourlyPrecipIn,Conditions,Clouds,dailyrainin,SoftwareType,DateUTC
2013-06-10 00:00:00,47.5,31.6,30.03,East,87,5.0,6.0,54,0.00,CLR,CLR,0.00,WeatherDisplay:10.37,2013-06-09 23:00:00,
2013-06-10 00:10:00,47.7,32.7,30.03,ENE,70,5.0,7.0,56,0.00,CLR,CLR,0.00,WeatherDisplay:10.37,2013-06-09 23:10:00,
2013-06-10 00:15:00,47.8,33.7,30.03,ENE,73,7.0,10.0,58,0.00,CLR,CLR,0.00,WeatherDisplay:10.37,2013-06-09 23:15:00,
2013-06-10 00:20:00,47.8,34.2,30.03,ENE,71,6.0,10.0,59,0.00,CLR,CLR,0.00,WeatherDisplay:10.37,2013-06-09 23:20:00,
2013-06-10 00:25:00,47.9,34.7,30.03,ENE,65,7.0,10.0,60,0.00,CLR,CLR,0.00,WeatherDisplay:10.37,2013-06-09 23:25:00,
2013-06-10 00:30:00,48.0,35.6,30.03,ENE,72,6.0,9.0,62,0.00,CLR,CLR,0.00,WeatherDisplay:10.37,2013-06-09 23:30:00,
2013-06-10 00:35:00,47.8,35.9,30.03,ENE,64,6.0,11.0,63,0.00,CLR,CLR,0.00,WeatherDisplay:10.37,2013-06-09 23:35:00,
2013-06-10 00:40:00,47.8,36.2,30.03,ENE,58,6.0,10.0,64,0.00,CLR,CLR,0.00,WeatherDisplay:10.37,2013-06-09 23:40:00,
2013-06-10 00:50:00,47.7,36.5,30.03,ENE,67,3.0,8.0,65,0.00,CLR,CLR,0.00,WeatherDisplay:10.37,2013-06-09 23:50:00,
2013-06-10 00:55:00,47.7,36.9,30.03,ENE,78,3.0,8.0,66,0.00,CLR,CLR,0.00,WeatherDisplay:10.37,2013-06-09 23:55:00,
2013-06-10 01:00:00,47.7,36.9,30.03,ENE,77,3.0,6.0,66,0.00,CLR,CLR,0.00,WeatherDisplay:10.37,2013-06-10 00:00:00,
2013-06-10 01:10:00,47.5,36.7,30.03,East,88,0.0,10.0,66,0.00,CLR,CLR,0.00,WeatherDisplay:10.37,2013-06-10 00:10:00,
2013-06-10 01:15:00,47.5,36.7,30.03,South,171,3.0,6.0,66,0.00,CLR,CLR,0.00,WeatherDisplay:10.37,2013-06-10 00:15:00,
2013-06-10 01:20:00,47.5,37.1,30.03,SW,217,0.0,4.0,67,0.00,CLR,CLR,0.00,WeatherDisplay:10.37,2013-06-10 00:20:00,
2013-06-10 01:25:00,47.5,37.1,30.03,SSW,212,0.0,6.0,67,0.00,CLR,CLR,0.00,WeatherDisplay:10.37,2013-06-10 00:25:00,
2013-06-10 01:30:00,47.4,36.6,30.03,South,179,1.0,4.0,66,0.00,CLR,CLR,0.00,WeatherDisplay:10.37,2013-06-10 00:30:00,
2013-06-10 01:40:00,47.4,37.0,30.03,ENE,76,0.0,3.0,67,0.00,CLR,CLR,0.00,WeatherDisplay:10.37,2013-06-10 00:40:00,
2013-06-10 01:45:00,47.5,37.1,30.03,East,84,0.0,4.0,67,0.00,CLR,CLR,0.00,WeatherDisplay:10.37,2013-06-10 00:45:00,
2013-06-10 01:50:00,47.5,37.1,30.03,ESE,107,0.0,3.0,67,0.00,CLR,CLR,0.00,WeatherDisplay:10.37,2013-06-10 00:50:00,
2013-06-10 01:55:00,47.5,37.1,30.03,ENE,75,1.0,6.0,67,0.00,CLR,CLR,0.00,WeatherDisplay:10.37,2013-06-10 00:55:00,
2013-06-10 02:00:00,47.5,37.1,30.03,East,86,1.0,6.0,67,0.00,CLR,CLR,0.00,WeatherDisplay:10.37,2013-06-10 01:00:00,
2013-06-10 02:05:00,47.5,37.1,30.03,ESE,108,5.0,6.0,67,0.00,CLR,CLR,0.00,WeatherDisplay:10.37,2013-06-10 01:05:00,
2013-06-10 02:10:00,47.5,37.4,30.03,East,93,1.0,6.0,68,0.00,CLR,CLR,0.00,WeatherDisplay:10.37,2013-06-10 01:10:00,
2013-06-10 02:15:00,47.5,37.4,30.03,East,85,0.0,2.0,68,0.00,CLR,CLR,0.00,WeatherDisplay:10.37,2013-06-10 01:15:00,
2013-06-10 02:20:00,47.7,37.6,30.03,NE,36,0.0,3.0,68,0.00,CLR,CLR,0.00,WeatherDisplay:10.37,2013-06-10 01:20:00,
2013-06-10 02:25:00,47.8,37.8,30.03,West,269,0.0,0.0,68,0.00,CLR,CLR,0.00,WeatherDisplay:10.37,2013-06-10 01:25:00,
2013-06-10 02:30:00,48.0,38.0,30.03,WSW,243,2.0,5.0,68,0.00,CLR,CLR,0.00,WeatherDisplay:10.37,2013-06-10 01:30:00,
2013-06-10 02:40:00,48.4,38.3,30.03,SW,225,0.0,0.0,68,0.00,CLR,CLR,0.00,WeatherDisplay:10.37,2013-06-10 01:40:00,
2013-06-10 02:45:00,48.4,38.3,30.03,SW,235,0.0,4.0,68,0.00,CLR,CLR,0.00,WeatherDisplay:10.37,2013-06-10 01:45:00,
2013-06-10 02:50:00,48.6,38.5,30.03,SSW,210,0.0,3.0,68,0.00,CLR,CLR,0.00,WeatherDisplay:10.37,2013-06-10 01:50:00,
2013-06-10 02:55:00,48.6,38.5,30.03,SSW,209,1.0,4.0,68,0.00,CLR,CLR,0.00,WeatherDisplay:10.37,2013-06-10 01:55:00,
2013-06-10 03:00:00,48.7,38.6,30.03,SSW,198,0.0,3.0,68,0.00,CLR,CLR,0.00,WeatherDisplay:10.37,2013-06-10 02:00:00,
2013-06-10 03:05:00,48.7,38.6,30.03,SSW,194,0.0,0.0,68,0.00,CLR,CLR,0.00,WeatherDisplay:10.37,2013-06-10 02:05:00,
2013-06-10 03:10:00,48.7,38.6,30.03,NE,48,0.0,0.0,68,0.00,CLR,CLR,0.00,WeatherDisplay:10.37,2013-06-10 02:10:00,
2013-06-10 03:15:00,48.7,38.6,30.03,WNW,293,0.0,0.0,68,0.00,CLR,CLR,0.00,WeatherDisplay:10.37,2013-06-10 02:15:00,
2013-06-10 03:20:00,48.9,38.8,30.03,SW,215,0.0,0.0,68,0.00,CLR,CLR,0.00,WeatherDisplay:10.37,2013-06-10 02:20:00,
2013-06-10 03:25:00,48.9,38.8,30.00,SSW,194,0.0,0.0,68,0.00,CLR,CLR,0.00,WeatherDisplay:10.37,2013-06-10 02:25:00,
2013-06-10 03:30:00,48.9,38.8,30.00,South,185,0.0,0.0,68,0.00,CLR,CLR,0.00,WeatherDisplay:10.37,2013-06-10 02:30:00,
2013-06-10 03:35:00,48.9,38.8,30.00,ESE,116,3.0,4.0,68,0.00,CLR,CLR,0.00,WeatherDisplay:10.37,2013-06-10 02:35:00,
2013-06-10 03:40:00,48.9,38.8,30.00,ENE,71,2.0,6.0,68,0.00,CLR,CLR,0.00,WeatherDisplay:10.37,2013-06-10 02:40:00,
2013-06-10 03:45:00,48.9,38.8,30.00,North,356,0.0,6.0,68,0.00,CLR,CLR,0.00,WeatherDisplay:10.37,2013-06-10 02:45:00,
2013-06-10 03:50:00,48.7,38.6,30.00,West,270,2.0,4.0,68,0.00,CLR,CLR,0.00,WeatherDisplay:10.37,2013-06-10 02:50:00,
2013-06-10 04:00:00,48.7,38.3,30.00,East,83,0.0,3.0,67,0.00,CLR,CLR,0.00,WeatherDisplay:10.37,2013-06-10 03:00:00,
2013-06-10 04:05:00,48.7,38.3,30.00,ENE,76,0.0,0.0,67,0.00,CLR,CLR,0.00,WeatherDisplay:10.37,2013-06-10 03:05:00,
2013-06-10 04:10:00,48.7,38.3,30.00,South,176,0.0,0.0,67,0.00,CLR,CLR,0.00,WeatherDisplay:10.37,2013-06-10 03:10:00,
2013-06-10 04:15:00,48.7,38.3,30.00,WNW,300,0.0,0.0,67,0.00,CLR,CLR,0.00,WeatherDisplay:10.37,2013-06-10 03:15:00,
2013-06-10 04:20:00,48.7,38.3,30.00,North,349,2.0,6.0,67,0.00,CLR,CLR,0.00,WeatherDisplay:10.37,2013-06-10 03:20:00,
2013-06-10 04:25:00,48.7,38.3,30.00,ENE,69,3.0,6.0,67,0.00,CLR,CLR,0.00,WeatherDisplay:10.37,2013-06-10 03:25:00,
2013-06-10 04:30:00,48.7,38.3,30.00,East,101,0.0,2.0,67,0.00,CLR,CLR,0.00,WeatherDisplay:10.37,2013-06-10 03:30:00,
2013-06-10 04:40:00,48.9,38.4,30.00,North,7,0.0,4.0,67,0.00,CLR,CLR,0.00,WeatherDisplay:10.37,2013-06-10 03:40:00,
2013-06-10 04:45:00,49.1,38.6,30.00,ENE,63,0.0,0.0,67,0.00,CLR,CLR,0.00,WeatherDisplay:10.37,2013-06-10 03:45:00,
2013-06-10 04:50:00,49.1,38.6,30.00,East,84,1.0,6.0,67,0.00,CLR,CLR,0.00,WeatherDisplay:10.37,2013-06-10 03:50:00,
2013-06-10 04:55:00,49.1,38.6,30.00,ESE,104,2.0,5.0,67,0.00,CLR,CLR,0.00,WeatherDisplay:10.37,2013-06-10 03:55:00,
2013-06-10 05:00:00,49.3,38.8,30.00,SE,136,1.0,6.0,67,0.00,CLR,CLR,0.00,WeatherDisplay:10.37,2013-06-10 04:00:00,
2013-06-10 05:05:00,49.3,38.8,30.00,SE,140,0.0,0.0,67,0.00,CLR,CLR,0.00,WeatherDisplay:10.37,2013-06-10 04:05:00,
2013-06-10 05:10:00,49.5,39.0,30.00,ESE,102,0.0,5.0,67,0.00,CLR,CLR,0.00,WeatherDisplay:10.37,2013-06-10 04:10:00,
2013-06-10 05:15:00,49.5,39.0,30.00,ENE,76,0.0,3.0,67,0.00,CLR,CLR,0.00,WeatherDisplay:10.37,2013-06-10 04:15:00,
2013-06-10 05:20:00,49.5,39.0,30.00,NE,52,1.0,6.0,67,0.00,CLR,CLR,0.00,WeatherDisplay:10.37,2013-06-10 04:20:00,
2013-06-10 05:25:00,49.6,39.1,30.00,NE,52,2.0,6.0,67,0.00,CLR,CLR,0.00,WeatherDisplay:10.37,2013-06-10 04:25:00,
2013-06-10 05:30:00,49.6,39.1,30.00,ENE,57,2.0,4.0,67,0.00,CLR,CLR,0.00,WeatherDisplay:10.37,2013-06-10 04:30:00,
2013-06-10 05:40:00,49.6,38.7,30.00,East,84,5.0,6.0,66,0.00,CLR,CLR,0.00,WeatherDisplay:10.37,2013-06-10 04:40:00,
2013-06-10 05:45:00,49.8,38.9,30.00,ENE,78,3.0,6.0,66,0.00,CLR,CLR,0.00,WeatherDisplay:10.37,2013-06-10 04:45:00,
2013-06-10 05:50:00,49.8,38.9,30.00,ENE,75,3.0,6.0,66,0.00,CLR,CLR,0.00,WeatherDisplay:10.37,2013-06-10 04:50:00,
2013-06-10 05:55:00,49.8,38.9,30.00,East,91,2.0,5.0,66,0.00,CLR,CLR,0.00,WeatherDisplay:10.37,2013-06-10 04:55:00,
2013-06-10 06:00:00,50.0,39.1,30.00,South,181,0.0,2.0,66,0.00,CLR,CLR,0.00,WeatherDisplay:10.37,2013-06-10 05:00:00,
2013-06-10 06:05:00,50.0,39.1,30.00,SSW,200,0.0,3.0,66,0.00,CLR,CLR,0.00,WeatherDisplay:10.37,2013-06-10 05:05:00,
2013-06-10 06:10:00,50.2,39.3,30.00,South,186,1.0,5.0,66,0.00,CLR,CLR,0.00,WeatherDisplay:10.37,2013-06-10 05:10:00,
2013-06-10 06:15:00,50.2,39.3,30.00,SSE,156,0.0,4.0,66,0.00,CLR,CLR,0.00,WeatherDisplay:10.37,2013-06-10 05:15:00,
2013-06-10 06:20:00,50.2,39.3,30.00,ESE,119,0.0,4.0,66,0.00,CLR,CLR,0.00,WeatherDisplay:10.37,2013-06-10 05:20:00,
2013-06-10 06:30:00,50.4,39.0,30.00,SE,127,1.0,4.0,65,0.00,CLR,CLR,0.00,WeatherDisplay:10.37,2013-06-10 05:30:00,
2013-06-10 06:35:00,50.4,39.0,30.00,SE,125,0.0,3.0,65,0.00,CLR,CLR,0.00,WeatherDisplay:10.37,2013-06-10 05:35:00,
2013-06-10 06:40:00,50.4,39.0,30.00,ESE,114,0.0,3.0,65,0.00,CLR,CLR,0.00,WeatherDisplay:10.37,2013-06-10 05:40:00,
2013-06-10 06:45:00,50.5,39.2,30.00,ENE,65,1.0,6.0,65,0.00,CLR,CLR,0.00,WeatherDisplay:10.37,2013-06-10 05:45:00,
2013-06-10 06:50:00,50.5,38.8,30.00,North,2,0.0,6.0,64,0.00,CLR,CLR,0.00,WeatherDisplay:10.37,2013-06-10 05:50:00,
2013-06-10 06:55:00,50.5,38.8,30.00,WNW,289,0.0,4.0,64,0.00,CLR,CLR,0.00,WeatherDisplay:10.37,2013-06-10 05:55:00,
2013-06-10 07:00:00,50.7,38.9,30.00,West,276,1.0,8.0,64,0.00,CLR,CLR,0.00,WeatherDisplay:10.37,2013-06-10 06:00:00,
2013-06-10 07:05:00,50.7,39.0,30.00,ENE,68,3.0,6.0,64,0.00,CLR,CLR,0.00,WeatherDisplay:10.37,2013-06-10 06:05:00,
2013-06-10 07:10:00,50.7,38.6,30.00,ENE,77,3.0,6.0,63,0.00,CLR,CLR,0.00,WeatherDisplay:10.37,2013-06-10 06:10:00,
2013-06-10 07:20:00,51.1,38.9,30.00,ENE,63,2.0,5.0,63,0.00,CLR,CLR,0.00,WeatherDisplay:10.37,2013-06-10 06:20:00,
2013-06-10 07:25:00,51.2,39.1,30.00,ENE,78,2.0,6.0,63,0.00,CLR,CLR,0.00,WeatherDisplay:10.37,2013-06-10 06:25:00,
2013-06-10 07:30:00,51.4,39.2,30.00,ESE,120,2.0,6.0,63,0.00,CLR,CLR,0.00,WeatherDisplay:10.37,2013-06-10 06:30:00,
2013-06-10 07:35:00,51.4,38.8,30.00,SSE,166,0.0,4.0,62,0.00,CLR,CLR,0.00,WeatherDisplay:10.37,2013-06-10 06:35:00,
2013-06-10 07:40:00,51.6,38.6,30.00,ESE,108,5.0,6.0,61,0.00,CLR,CLR,0.00,WeatherDisplay:10.37,2013-06-10 06:40:00,
2013-06-10 07:45:00,51.6,38.6,30.00,East,90,1.0,5.0,61,0.00,CLR,CLR,0.00,WeatherDisplay:10.37,2013-06-10 06:45:00,
2013-06-10 07:50:00,51.6,38.6,30.00,ENE,68,1.0,5.0,61,0.00,CLR,CLR,0.00,WeatherDisplay:10.37,2013-06-10 06:50:00,
2013-06-10 07:55:00,51.8,38.3,30.00,East,98,0.0,5.0,60,0.00,CLR,CLR,0.00,WeatherDisplay:10.37,2013-06-10 06:55:00,
2013-06-10 08:00:00,51.8,38.3,30.00,ESE,104,0.0,3.0,60,0.00,CLR,CLR,0.00,WeatherDisplay:10.37,2013-06-10 07:00:00,
2013-06-10 08:05:00,52.0,38.1,30.00,East,87,5.0,6.0,59,0.00,CLR,CLR,0.00,WeatherDisplay:10.37,2013-06-10 07:05:00,
2013-06-10 08:10:00,52.1,38.2,30.00,ENE,68,0.0,4.0,59,0.00,CLR,CLR,0.00,WeatherDisplay:10.37,2013-06-10 07:10:00,
2013-06-10 08:15:00,52.2,37.8,30.00,ENE,62,2.0,8.0,58,0.00,CLR,CLR,0.00,WeatherDisplay:10.37,2013-06-10 07:15:00,
2013-06-10 08:20:00,52.3,37.5,30.00,NE,45,1.0,6.0,57,0.00,CLR,CLR,0.00,WeatherDisplay:10.37,2013-06-10 07:20:00,
2013-06-10 08:25:00,52.7,37.4,30.00,NE,37,3.0,6.0,56,0.00,CLR,CLR,0.00,WeatherDisplay:10.37,2013-06-10 07:25:00,
2013-06-10 08:30:00,53.1,37.3,30.00,East,94,6.0,8.0,55,0.00,CLR,CLR,0.00,WeatherDisplay:10.37,2013-06-10 07:30:00,
2013-06-10 08:35:00,53.0,36.3,30.00,ESE,105,2.0,6.0,53,0.00,CLR,CLR,0.00,WeatherDisplay:10.37,2013-06-10 07:35:00,
2013-06-10 08:40:00,53.1,35.9,30.00,East,94,2.0,6.0,52,0.00,CLR,CLR,0.00,WeatherDisplay:10.37,2013-06-10 07:40:00,
2013-06-10 08:45:00,53.1,35.4,30.00,East,84,3.0,6.0,51,0.00,CLR,CLR,0.00,WeatherDisplay:10.37,2013-06-10 07:45:00,
2013-06-10 08:50:00,53.1,35.4,30.00,East,81,0.0,5.0,51,0.00,CLR,CLR,0.00,WeatherDisplay:10.37,2013-06-10 07:50:00,
2013-06-10 08:55:00,53.1,34.9,30.00,East,86,5.0,6.0,50,0.00,CLR,CLR,0.00,WeatherDisplay:10.37,2013-06-10 07:55:00,
2013-06-10 09:00:00,53.1,34.9,30.00,ENE,78,6.0,7.0,50,0.00,CLR,CLR,0.00,WeatherDisplay:10.37,2013-06-10 08:00:00,
2013-06-10 09:05:00,53.2,34.6,30.00,ENE,77,5.0,6.0,49,0.00,CLR,CLR,0.00,WeatherDisplay:10.37,2013-06-10 08:05:00,
2013-06-10 09:10:00,53.2,34.6,30.00,East,95,3.0,6.0,49,0.00,CLR,CLR,0.00,WeatherDisplay:10.37,2013-06-10 08:10:00,
2013-06-10 09:15:00,53.6,34.4,30.00,East,90,5.0,8.0,48,0.00,CLR,CLR,0.00,WeatherDisplay:10.37,2013-06-10 08:15:00,
2013-06-10 09:20:00,53.8,34.0,30.00,East,88,7.0,11.0,47,0.00,CLR,CLR,0.00,WeatherDisplay:10.37,2013-06-10 08:20:00,
2013-06-10 09:25:00,54.0,34.2,30.00,East,87,5.0,8.0,47,0.00,CLR,CLR,0.00,WeatherDisplay:10.37,2013-06-10 08:25:00,
2013-06-10 09:30:00,54.3,34.5,30.00,East,82,6.0,8.0,47,0.00,CLR,CLR,0.00,WeatherDisplay:10.37,2013-06-10 08:30:00,
2013-06-10 09:40:00,54.9,33.9,30.00,East,84,5.0,10.0,45,0.00,CLR,CLR,0.00,WeatherDisplay:10.37,2013-06-10 08:40:00,
2013-06-10 09:45:00,54.9,32.8,30.00,East,81,6.0,9.0,43,0.00,CLR,CLR,0.00,WeatherDisplay:10.37,2013-06-10 08:45:00,
2013-06-10 09:50:00,54.7,32.6,30.00,ENE,77,6.0,12.0,43,0.00,CLR,CLR,0.00,WeatherDisplay:10.37,2013-06-10 08:50:00,
2013-06-10 09:55:00,54.5,32.4,30.00,ENE,66,6.0,9.0,43,0.00,CLR,CLR,0.00,WeatherDisplay:10.37,2013-06-10 08:55:00,
2013-06-10 10:00:00,54.5,33.0,30.00,ENE,70,6.0,9.0,44,0.00,CLR,CLR,0.00,WeatherDisplay:10.37,2013-06-10 09:00:00,
2013-06-10 10:05:00,54.7,33.2,30.00,East,83,7.0,9.0,44,0.00,CLR,CLR,0.00,WeatherDisplay:10.37,2013-06-10 09:05:00,
2013-06-10 10:10:00,54.7,33.2,30.00,ENE,71,5.0,8.0,44,0.00,CLR,CLR,0.00,WeatherDisplay:10.37,2013-06-10 09:10:00,
2013-06-10 10:15:00,54.7,33.2,30.00,ENE,66,6.0,9.0,44,0.00,CLR,CLR,0.00,WeatherDisplay:10.37,2013-06-10 09:15:00,
2013-06-10 10:20:00,54.4,31.7,30.00,ENE,68,7.0,9.0,42,0.00,CLR,CLR,0.00,WeatherDisplay:10.37,2013-06-10 09:20:00,
2013-06-10 10:25:00,54.1,32.7,30.00,ENE,73,6.0,8.0,44,0.00,CLR,CLR,0.00,WeatherDisplay:10.37,2013-06-10 09:25:00,
2013-06-10 10:30:00,54.1,33.2,30.00,ENE,65,7.0,12.0,45,0.00,CLR,CLR,0.00,WeatherDisplay:10.37,2013-06-10 09:30:00,
2013-06-10 10:35:00,54.3,33.4,30.00,ENE,58,3.0,9.0,45,0.00,CLR,CLR,0.00,WeatherDisplay:10.37,2013-06-10 09:35:00,
2013-06-10 10:40:00,54.7,33.7,30.00,East,80,5.0,8.0,45,0.00,CLR,CLR,0.00,WeatherDisplay:10.37,2013-06-10 09:40:00,
2013-06-10 10:45:00,54.9,33.3,30.00,East,88,7.0,10.0,44,0.00,CLR,CLR,0.00,WeatherDisplay:10.37,2013-06-10 09:45:00,
2013-06-10 10:50:00,54.7,32.6,30.00,ENE,75,5.0,10.0,43,0.00,CLR,CLR,0.00,WeatherDisplay:10.37,2013-06-10 09:50:00,
2013-06-10 10:55:00,54.9,32.8,30.00,ENE,74,6.0,8.0,43,0.00,CLR,CLR,0.00,WeatherDisplay:10.37,2013-06-10 09:55:00,
2013-06-10 11:00:00,55.4,33.8,30.00,East,81,6.0,9.0,44,0.00,CLR,CLR,0.00,WeatherDisplay:10.37,2013-06-10 10:00:00,
2013-06-10 11:05:00,55.9,33.7,30.00,ENE,63,6.0,8.0,43,0.00,CLR,CLR,0.00,WeatherDisplay:10.37,2013-06-10 10:05:00,
2013-06-10 11:10:00,56.4,33.6,29.97,ENE,60,5.0,10.0,42,0.00,CLR,CLR,0.00,WeatherDisplay:10.37,2013-06-10 10:10:00,
2013-06-10 11:20:00,57.2,31.8,29.97,ENE,78,5.0,12.0,38,0.00,CLR,CLR,0.00,WeatherDisplay:10.37,2013-06-10 10:20:00,
2013-06-10 11:30:00,57.6,31.5,30.00,ENE,76,6.0,12.0,37,0.00,CLR,CLR,0.00,WeatherDisplay:10.37,2013-06-10 10:30:00,
2013-06-10 11:40:00,57.6,30.8,29.97,ENE,63,6.0,13.0,36,0.00,CLR,CLR,0.00,WeatherDisplay:10.37,2013-06-10 10:40:00,
2013-06-10 11:45:00,57.1,30.3,29.97,ENE,65,7.0,13.0,36,0.00,CLR,CLR,0.00,WeatherDisplay:10.37,2013-06-10 10:45:00,
2013-06-10 11:50:00,56.9,30.8,29.97,ENE,73,6.0,12.0,37,0.00,CLR,CLR,0.00,WeatherDisplay:10.37,2013-06-10 10:50:00,
2013-06-10 11:55:00,57.0,30.3,29.97,East,80,6.0,12.0,36,0.00,CLR,CLR,0.00,WeatherDisplay:10.37,2013-06-10 10:55:00,
2013-06-10 12:00:00,57.2,30.5,29.97,ENE,69,7.0,13.0,36,0.00,CLR,CLR,0.00,WeatherDisplay:10.37,2013-06-10 11:00:00,
2013-06-10 12:05:00,57.1,30.3,29.97,ENE,69,6.0,10.0,36,0.00,CLR,CLR,0.00,WeatherDisplay:10.37,2013-06-10 11:05:00,
2013-06-10 12:10:00,57.0,30.3,29.97,East,80,5.0,12.0,36,0.00,CLR,CLR,0.00,WeatherDisplay:10.37,2013-06-10 11:10:00,
2013-06-10 12:15:00,56.8,30.1,29.97,ENE,75,7.0,8.0,36,0.00,CLR,CLR,0.00,WeatherDisplay:10.37,2013-06-10 11:15:00,
2013-06-10 12:20:00,56.5,29.8,29.97,NE,54,6.0,11.0,36,0.00,CLR,CLR,0.00,WeatherDisplay:10.37,2013-06-10 11:20:00,
2013-06-10 12:25:00,56.3,30.3,29.97,NE,56,6.0,12.0,37,0.00,CLR,CLR,0.00,WeatherDisplay:10.37,2013-06-10 11:25:00,
2013-06-10 12:30:00,55.9,30.0,29.97,ENE,66,8.0,10.0,37,0.00,CLR,CLR,0.00,WeatherDisplay:10.37,2013-06-10 11:30:00,
2013-06-10 12:40:00,55.4,30.2,29.97,ENE,69,6.0,10.0,38,0.00,CLR,CLR,0.00,WeatherDisplay:10.37,2013-06-10 11:40:00,
2013-06-10 12:45:00,55.8,30.5,29.97,ENE,64,7.0,8.0,38,0.00,CLR,CLR,0.00,WeatherDisplay:10.37,2013-06-10 11:45:00,
2013-06-10 12:50:00,55.8,30.5,29.97,ENE,64,6.0,8.0,38,0.00,CLR,CLR,0.00,WeatherDisplay:10.37,2013-06-10 11:50:00,
2013-06-10 12:55:00,55.9,30.7,29.97,ENE,64,8.0,11.0,38,0.00,CLR,CLR,0.00,WeatherDisplay:10.37,2013-06-10 11:55:00,
2013-06-10 13:00:00,56.0,30.7,29.97,ENE,60,8.0,13.0,38,0.00,CLR,CLR,0.00,WeatherDisplay:10.37,2013-06-10 12:00:00,
2013-06-10 13:05:00,56.4,30.4,29.97,ENE,70,7.0,13.0,37,0.00,CLR,CLR,0.00,WeatherDisplay:10.37,2013-06-10 12:05:00,
2013-06-10 13:10:00,56.8,30.8,29.97,East,86,7.0,13.0,37,0.00,CLR,CLR,0.00,WeatherDisplay:10.37,2013-06-10 12:10:00,
2013-06-10 13:15:00,57.0,31.0,29.97,East,81,7.0,10.0,37,0.00,CLR,CLR,0.00,WeatherDisplay:10.37,2013-06-10 12:15:00,
2013-06-10 13:20:00,56.8,30.1,29.97,East,82,7.0,8.0,36,0.00,CLR,CLR,0.00,WeatherDisplay:10.37,2013-06-10 12:20:00,
2013-06-10 13:25:00,56.7,30.0,29.97,East,84,7.0,9.0,36,0.00,CLR,CLR,0.00,WeatherDisplay:10.37,2013-06-10 12:25:00,
2013-06-10 13:30:00,56.5,30.5,29.97,ENE,73,5.0,9.0,37,0.00,CLR,CLR,0.00,WeatherDisplay:10.37,2013-06-10 12:30:00,
2013-06-10 13:35:00,56.8,30.8,29.97,ENE,66,7.0,12.0,37,0.00,CLR,CLR,0.00,WeatherDisplay:10.37,2013-06-10 12:35:00,
2013-06-10 13:40:00,57.2,30.5,29.97,East,80,6.0,12.0,36,0.00,CLR,CLR,0.00,WeatherDisplay:10.37,2013-06-10 12:40:00,
2013-06-10 13:45:00,57.7,30.9,29.97,East,93,7.0,13.0,36,0.00,CLR,CLR,0.00,WeatherDisplay:10.37,2013-06-10 12:45:00,
2013-06-10 13:50:00,58.1,30.6,29.97,East,88,7.0,12.0,35,0.00,CLR,CLR,0.00,WeatherDisplay:10.37,2013-06-10 12:50:00,
2013-06-10 13:55:00,58.4,30.8,29.97,East,86,7.0,11.0,35,0.00,CLR,CLR,0.00,WeatherDisplay:10.37,2013-06-10 12:55:00,
2013-06-10 14:00:00,59.1,31.5,29.97,East,79,7.0,11.0,35,0.00,CLR,CLR,0.00,WeatherDisplay:10.37,2013-06-10 13:00:00,
2013-06-10 14:05:00,59.7,31.3,29.97,ENE,76,6.0,9.0,34,0.00,CLR,CLR,0.00,WeatherDisplay:10.37,2013-06-10 13:05:00,
2013-06-10 14:10:00,59.9,29.9,29.97,East,83,7.0,12.0,32,0.00,CLR,CLR,0.00,WeatherDisplay:10.37,2013-06-10 13:10:00,
2013-06-10 14:15:00,60.4,30.4,29.97,ENE,76,7.0,11.0,32,0.00,CLR,CLR,0.00,WeatherDisplay:10.37,2013-06-10 13:15:00,
2013-06-10 14:20:00,60.2,29.4,29.97,ENE,66,7.0,9.0,31,0.00,CLR,CLR,0.00,WeatherDisplay:10.37,2013-06-10 13:20:00,
2013-06-10 14:30:00,60.4,28.8,29.97,ENE,65,6.0,12.0,30,0.00,CLR,CLR,0.00,WeatherDisplay:10.37,2013-06-10 13:30:00,
2013-06-10 14:35:00,60.2,30.2,29.97,ENE,65,8.0,10.0,32,0.00,CLR,CLR,0.00,WeatherDisplay:10.37,2013-06-10 13:35:00,
2013-06-10 14:40:00,60.4,30.4,29.97,ENE,72,7.0,11.0,32,0.00,CLR,CLR,0.00,WeatherDisplay:10.37,2013-06-10 13:40:00,
2013-06-10 14:45:00,60.6,29.8,29.97,ENE,70,7.0,11.0,31,0.00,CLR,CLR,0.00,WeatherDisplay:10.37,2013-06-10 13:45:00,
2013-06-10 14:50:00,60.6,29.0,29.97,ENE,70,5.0,11.0,30,0.00,CLR,CLR,0.00,WeatherDisplay:10.37,2013-06-10 13:50:00,
2013-06-10 14:55:00,61.1,30.2,29.97,ENE,72,5.0,8.0,31,0.00,CLR,CLR,0.00,WeatherDisplay:10.37,2013-06-10 13:55:00,
2013-06-10 15:00:00,61.5,28.0,29.97,ENE,77,6.0,12.0,28,0.00,CLR,CLR,0.00,WeatherDisplay:10.37,2013-06-10 14:00:00,
2013-06-10 15:10:00,62.1,28.5,29.97,East,81,6.0,10.0,28,0.00,CLR,CLR,0.00,WeatherDisplay:10.37,2013-06-10 14:10:00,
2013-06-10 15:15:00,62.1,27.7,29.97,East,85,7.0,9.0,27,0.00,CLR,CLR,0.00,WeatherDisplay:10.37,2013-06-10 14:15:00,
2013-06-10 15:20:00,61.7,27.3,29.97,East,89,5.0,8.0,27,0.00,CLR,CLR,0.00,WeatherDisplay:10.37,2013-06-10 14:20:00,
2013-06-10 15:25:00,61.8,28.3,29.97,ENE,65,5.0,9.0,28,0.00,CLR,CLR,0.00,WeatherDisplay:10.37,2013-06-10 14:25:00,
2013-06-10 15:30:00,62.1,27.7,29.97,ENE,61,6.0,8.0,27,0.00,CLR,CLR,0.00,WeatherDisplay:10.37,2013-06-10 14:30:00,
2013-06-10 15:40:00,62.6,27.2,29.97,East,88,3.0,8.0,26,0.00,CLR,CLR,0.00,WeatherDisplay:10.37,2013-06-10 14:40:00,
2013-06-10 15:45:00,62.8,28.3,29.97,East,79,5.0,9.0,27,0.00,CLR,CLR,0.00,WeatherDisplay:10.37,2013-06-10 14:45:00,
2013-06-10 15:50:00,63.0,27.5,29.97,ENE,70,6.0,9.0,26,0.00,CLR,CLR,0.00,WeatherDisplay:10.37,2013-06-10 14:50:00,
2013-06-10 15:55:00,62.6,27.2,29.94,East,83,3.0,9.0,26,0.00,CLR,CLR,0.00,WeatherDisplay:10.37,2013-06-10 14:55:00,
2013-06-10 16:00:00,62.4,28.0,29.94,ENE,69,5.0,8.0,27,0.00,CLR,CLR,0.00,WeatherDisplay:10.37,2013-06-10 15:00:00,
2013-06-10 16:05:00,62.6,27.2,29.94,ENE,64,3.0,8.0,26,0.00,CLR,CLR,0.00,WeatherDisplay:10.37,2013-06-10 15:05:00,
2013-06-10 16:10:00,62.2,27.8,29.94,ENE,62,5.0,8.0,27,0.00,CLR,CLR,0.00,WeatherDisplay:10.37,2013-06-10 15:10:00,
2013-06-10 16:15:00,62.3,27.9,29.94,ENE,73,3.0,10.0,27,0.00,CLR,CLR,0.00,WeatherDisplay:10.37,2013-06-10 15:15:00,
2013-06-10 16:20:00,63.0,27.5,29.94,ENE,74,7.0,8.0,26,0.00,CLR,CLR,0.00,WeatherDisplay:10.37,2013-06-10 15:20:00,
2013-06-10 16:25:00,62.6,27.2,29.94,ENE,65,6.0,8.0,26,0.00,CLR,CLR,0.00,WeatherDisplay:10.37,2013-06-10 15:25:00,
2013-06-10 16:30:00,62.8,27.4,29.94,ENE,64,3.0,8.0,26,0.00,CLR,CLR,0.00,WeatherDisplay:10.37,2013-06-10 15:30:00,
2013-06-10 16:40:00,62.8,27.4,29.94,East,84,6.0,12.0,26,0.00,CLR,CLR,0.00,WeatherDisplay:10.37,2013-06-10 15:40:00,
2013-06-10 16:45:00,63.1,27.7,29.94,ENE,77,5.0,9.0,26,0.00,CLR,CLR,0.00,WeatherDisplay:10.37,2013-06-10 15:45:00,
2013-06-10 16:50:00,63.0,27.5,29.94,ENE,72,6.0,11.0,26,0.00,CLR,CLR,0.00,WeatherDisplay:10.37,2013-06-10 15:50:00,
2013-06-10 16:55:00,63.1,26.7,29.94,ENE,73,6.0,9.0,25,0.00,CLR,CLR,0.00,WeatherDisplay:10.37,2013-06-10 15:55:00,
2013-06-10 17:00:00,63.1,27.7,29.94,East,84,5.0,8.0,26,0.00,CLR,CLR,0.00,WeatherDisplay:10.37,2013-06-10 16:00:00,
2013-06-10 17:05:00,63.1,26.7,29.94,East,86,5.0,10.0,25,0.00,CLR,CLR,0.00,WeatherDisplay:10.37,2013-06-10 16:05:00,
2013-06-10 17:10:00,62.3,26.0,29.94,ENE,57,6.0,9.0,25,0.00,CLR,CLR,0.00,WeatherDisplay:10.37,2013-06-10 16:10:00,
2013-06-10 17:15:00,61.7,26.4,29.94,NE,39,5.0,8.0,26,0.00,CLR,CLR,0.00,WeatherDisplay:10.37,2013-06-10 16:15:00,
2013-06-10 17:20:00,61.2,26.9,29.94,NE,49,6.0,9.0,27,0.00,CLR,CLR,0.00,WeatherDisplay:10.37,2013-06-10 16:20:00,
2013-06-10 17:25:00,61.2,26.9,29.94,NE,55,5.0,8.0,27,0.00,CLR,CLR,0.00,WeatherDisplay:10.37,2013-06-10 16:25:00,
2013-06-10 17:30:00,61.6,27.3,29.94,ENE,73,5.0,9.0,27,0.00,CLR,CLR,0.00,WeatherDisplay:10.37,2013-06-10 16:30:00,
2013-06-10 17:40:00,61.9,27.5,29.94,NE,56,6.0,9.0,27,0.00,CLR,CLR,0.00,WeatherDisplay:10.37,2013-06-10 16:40:00,
2013-06-10 17:45:00,61.7,26.4,29.94,ENE,72,6.0,8.0,26,0.00,CLR,CLR,0.00,WeatherDisplay:10.37,2013-06-10 16:45:00,
2013-06-10 17:50:00,60.9,25.7,29.94,ENE,72,7.0,9.0,26,0.00,CLR,CLR,0.00,WeatherDisplay:10.37,2013-06-10 16:50:00,
2013-06-10 17:55:00,60.1,26.8,29.91,ENE,64,5.0,6.0,28,0.00,CLR,CLR,0.00,WeatherDisplay:10.37,2013-06-10 16:55:00,
2013-06-10 18:00:00,59.9,27.5,29.91,ENE,76,6.0,9.0,29,0.00,CLR,CLR,0.00,WeatherDisplay:10.37,2013-06-10 17:00:00,
2013-06-10 18:05:00,59.9,28.4,29.91,East,83,6.0,9.0,30,0.00,CLR,CLR,0.00,WeatherDisplay:10.37,2013-06-10 17:05:00,
2013-06-10 18:10:00,59.7,27.3,29.91,ENE,72,6.0,9.0,29,0.00,CLR,CLR,0.00,WeatherDisplay:10.37,2013-06-10 17:10:00,
2013-06-10 18:15:00,59.2,26.9,29.91,ENE,67,5.0,8.0,29,0.00,CLR,CLR,0.00,WeatherDisplay:10.37,2013-06-10 17:15:00,
2013-06-10 18:20:00,58.8,27.4,29.91,East,79,7.0,8.0,30,0.00,CLR,CLR,0.00,WeatherDisplay:10.37,2013-06-10 17:20:00,
2013-06-10 18:25:00,58.3,26.9,29.91,ENE,73,5.0,8.0,30,0.00,CLR,CLR,0.00,WeatherDisplay:10.37,2013-06-10 17:25:00,
2013-06-10 18:30:00,57.7,27.3,29.91,ENE,66,5.0,9.0,31,0.00,CLR,CLR,0.00,WeatherDisplay:10.37,2013-06-10 17:30:00,
2013-06-10 18:40:00,56.8,28.0,29.91,ENE,76,5.0,9.0,33,0.00,CLR,CLR,0.00,WeatherDisplay:10.37,2013-06-10 17:40:00,
2013-06-10 18:45:00,56.5,28.4,29.91,East,83,3.0,6.0,34,0.00,CLR,CLR,0.00,WeatherDisplay:10.37,2013-06-10 17:45:00,
2013-06-10 18:50:00,56.3,29.0,29.91,ENE,74,5.0,8.0,35,0.00,CLR,CLR,0.00,WeatherDisplay:10.37,2013-06-10 17:50:00,
2013-06-10 18:55:00,56.1,28.8,29.91,East,83,5.0,8.0,35,0.00,CLR,CLR,0.00,WeatherDisplay:10.37,2013-06-10 17:55:00,
2013-06-10 19:00:00,56.1,28.8,29.91,East,83,6.0,11.0,35,0.00,CLR,CLR,0.00,WeatherDisplay:10.37,2013-06-10 18:00:00,
2013-06-10 19:05:00,56.3,29.0,29.91,ENE,78,7.0,11.0,35,0.00,CLR,CLR,0.00,WeatherDisplay:10.37,2013-06-10 18:05:00,
2013-06-10 19:10:00,56.3,28.3,29.91,East,80,6.0,9.0,34,0.00,CLR,CLR,0.00,WeatherDisplay:10.37,2013-06-10 18:10:00,
2013-06-10 19:15:00,55.9,27.9,29.91,East,80,8.0,12.0,34,0.00,CLR,CLR,0.00,WeatherDisplay:10.37,2013-06-10 18:15:00,
2013-06-10 20:10:00,52.7,27.8,29.91,ENE,68,7.0,13.0,38,0.00,CLR,CLR,0.00,WeatherDisplay:10.37,2013-06-10 19:10:00,
2013-06-10 20:15:00,52.4,27.5,29.91,ENE,70,7.0,12.0,38,0.00,CLR,CLR,0.00,WeatherDisplay:10.37,2013-06-10 19:15:00,
2013-06-10 20:20:00,52.2,27.3,29.91,ENE,76,6.0,11.0,38,0.00,CLR,CLR,0.00,WeatherDisplay:10.37,2013-06-10 19:20:00,
2013-06-10 20:25:00,52.0,27.1,29.91,East,83,7.0,11.0,38,0.00,CLR,CLR,0.00,WeatherDisplay:10.37,2013-06-10 19:25:00,
2013-06-10 20:30:00,51.6,27.5,29.91,ENE,73,6.0,10.0,39,0.00,CLR,CLR,0.00,WeatherDisplay:10.37,2013-06-10 19:30:00,
2013-06-10 20:40:00,51.4,27.2,29.91,ENE,69,6.0,10.0,39,0.00,CLR,CLR,0.00,WeatherDisplay:10.37,2013-06-10 19:40:00,
2013-06-10 20:50:00,51.1,27.6,29.91,ENE,71,8.0,11.0,40,0.00,CLR,CLR,0.00,WeatherDisplay:10.37,2013-06-10 19:50:00,
2013-06-10 21:00:00,50.7,27.2,29.91,ENE,71,8.0,12.0,40,0.00,CLR,CLR,0.00,WeatherDisplay:10.37,2013-06-10 20:00:00,
2013-06-10 21:05:00,50.7,27.8,29.91,ENE,72,6.0,13.0,41,0.00,CLR,CLR,0.00,WeatherDisplay:10.37,2013-06-10 20:05:00,
2013-06-10 21:10:00,50.5,27.7,29.91,ENE,63,7.0,10.0,41,0.00,CLR,CLR,0.00,WeatherDisplay:10.37,2013-06-10 20:10:00,
2013-06-10 21:15:00,50.5,27.6,29.91,ENE,61,7.0,12.0,41,0.00,CLR,CLR,0.00,WeatherDisplay:10.37,2013-06-10 20:15:00,
2013-06-10 21:20:00,50.4,28.1,29.91,ENE,70,7.0,8.0,42,0.00,CLR,CLR,0.00,WeatherDisplay:10.37,2013-06-10 20:20:00,
2013-06-10 21:25:00,50.4,28.7,29.91,ENE,77,8.0,12.0,43,0.00,CLR,CLR,0.00,WeatherDisplay:10.37,2013-06-10 20:25:00,
2013-06-10 21:30:00,50.2,29.1,29.91,ENE,74,8.0,10.0,44,0.00,CLR,CLR,0.00,WeatherDisplay:10.37,2013-06-10 20:30:00,
2013-06-10 21:40:00,50.2,29.1,29.91,ENE,61,7.0,10.0,44,0.00,CLR,CLR,0.00,WeatherDisplay:10.37,2013-06-10 20:40:00,
2013-06-10 21:45:00,50.2,29.6,29.91,ENE,68,7.0,9.0,45,0.00,CLR,CLR,0.00,WeatherDisplay:10.37,2013-06-10 20:45:00,
2013-06-10 21:50:00,50.2,29.6,29.91,ENE,72,6.0,10.0,45,0.00,CLR,CLR,0.00,WeatherDisplay:10.37,2013-06-10 20:50:00,
2013-06-10 21:55:00,50.2,29.6,29.91,ENE,71,7.0,10.0,45,0.00,CLR,CLR,0.00,WeatherDisplay:10.37,2013-06-10 20:55:00,
2013-06-10 22:00:00,50.2,29.6,29.91,ENE,75,5.0,13.0,45,0.00,CLR,CLR,0.00,WeatherDisplay:10.37,2013-06-10 21:00:00,
2013-06-10 22:10:00,50.2,29.6,29.91,East,81,7.0,13.0,45,0.00,CLR,CLR,0.00,WeatherDisplay:10.37,2013-06-10 21:10:00,
2013-06-10 22:15:00,50.2,30.2,29.91,ENE,77,7.0,12.0,46,0.00,CLR,CLR,0.00,WeatherDisplay:10.37,2013-06-10 21:15:00,
2013-06-10 22:20:00,50.0,30.0,29.91,ENE,73,7.0,8.0,46,0.00,CLR,CLR,0.00,WeatherDisplay:10.37,2013-06-10 21:20:00,
2013-06-10 22:25:00,49.8,30.4,29.91,ENE,71,7.0,9.0,47,0.00,CLR,CLR,0.00,WeatherDisplay:10.37,2013-06-10 21:25:00,
2013-06-10 22:30:00,49.8,30.4,29.91,ENE,67,7.0,10.0,47,0.00,CLR,CLR,0.00,WeatherDisplay:10.37,2013-06-10 21:30:00,
2013-06-10 22:40:00,49.8,30.9,29.91,East,81,5.0,8.0,48,0.00,CLR,CLR,0.00,WeatherDisplay:10.37,2013-06-10 21:40:00,
2013-06-10 22:45:00,49.8,30.9,29.91,ENE,72,3.0,8.0,48,0.00,CLR,CLR,0.00,WeatherDisplay:10.37,2013-06-10 21:45:00,
2013-06-10 22:50:00,49.8,30.9,29.91,NE,50,1.0,6.0,48,0.00,CLR,CLR,0.00,WeatherDisplay:10.37,2013-06-10 21:50:00,
2013-06-10 22:55:00,49.9,31.0,29.91,NE,50,1.0,8.0,48,0.00,CLR,CLR,0.00,WeatherDisplay:10.37,2013-06-10 21:55:00,
2013-06-10 23:00:00,50.0,31.1,29.91,East,79,1.0,3.0,48,0.00,CLR,CLR,0.00,WeatherDisplay:10.37,2013-06-10 22:00:00,
2013-06-10 23:10:00,50.0,31.1,29.91,SW,234,0.0,0.0,48,0.00,CLR,CLR,0.00,WeatherDisplay:10.37,2013-06-10 22:10:00,
2013-06-10 23:15:00,50.0,31.1,29.91,SE,138,0.0,3.0,48,0.00,CLR,CLR,0.00,WeatherDisplay:10.37,2013-06-10 22:15:00,
2013-06-10 23:20:00,50.0,31.1,29.91,ESE,123,0.0,0.0,48,0.00,CLR,CLR,0.00,WeatherDisplay:10.37,2013-06-10 22:20:00,
2013-06-10 23:25:00,50.2,31.2,29.91,South,173,0.0,0.0,48,0.00,CLR,CLR,0.00,WeatherDisplay:10.37,2013-06-10 22:25:00,
2013-06-10 23:30:00,50.2,31.2,29.91,SSW,198,2.0,5.0,48,0.00,CLR,CLR,0.00,WeatherDisplay:10.37,2013-06-10 22:30:00,
2013-06-10 23:40:00,50.4,31.4,29.91,North,7,1.0,4.0,48,0.00,CLR,CLR,0.00,WeatherDisplay:10.37,2013-06-10 22:40:00,
2013-06-10 23:45:00,50.4,31.4,29.91,NE,46,0.0,4.0,48,0.00,CLR,CLR,0.00,WeatherDisplay:10.37,2013-06-10 22:45:00,
2013-06-10 23:50:00,50.4,31.4,29.91,East,99,0.0,5.0,48,0.00,CLR,CLR,0.00,WeatherDisplay:10.37,2013-06-10 22:50:00,
2013-06-10 23:55:00,50.2,31.2,29.91,ENE,64,0.0,6.0,48,0.00,CLR,CLR,0.00,WeatherDisplay:10.37,2013-06-10 22:55:00,